Location: Vihti�l�
(61.3833°N, 23.0667°E)
Time: 04:05:35
(UTC+00:00)

CZ-4 R/B - Pass Details

Date: 29 November 2020
Orbit: 533 x 597 km, 97.7° (Epoch: 19 January)

Event Time Altitude Azimuth Distance (km) Brightness Sun altitude
Rises 05:05:11 0° 21° (NNE) 2,831 5.0 -13.2°
Reaches altitude 10° 05:07:42 10° 36° (NE) 1,934 4.3 -12.9°
Maximum altitude 05:11:06 23° 90° (E) 1,273 4.1 -12.5°
Drops below altitude 10° 05:14:31 10° 144° (SE) 1,938 5.1 -12.1°
Sets 05:17:02 0° 159° (SSE) 2,837 5.7 -11.9°
